Content
SEND FEEDBACK

Daily
Averages
Monthly
Summary
United States of America

TAMUNING, GUAM


Home > North America > United States > Guam
Elevation: 250 feet     Latitude: 13 29N     Longitude: 144 47E

WEATHER
 
SELECT A DAY
Number of Records: 351,467;   Date Range: 1/1/95 - 10/18/14
 
SHARE

PRINT THIS DATA

[ ← Previous Day ]
WEATHER ALMANAC - OCTOBER 29, 2013
[ Next Day → ]
[ °C ]   °F
Weather ElementAverageHighLow
Temperature81.4 °F84.7 °F (12:58 pm)75.4 °F (2:58 am)
Dewpoint77.9 °F79.5 °F (9:58 am)74.8 °F (2:58 am)
Humidity89.3 %98 % (1:58 am)82 % (12:58 pm)
Barometer29.89 in29.95 in (10:18 pm)29.81 in (2:58 pm)
Wind Speed10.7 mph18.4 mph (3:23 pm)
Wind Gust23 mph (10:38 pm)
Weather ElementAverage
Visibility9.9 mi
Wind DirectionE (92.2 °)

Weather ElementTotal
Precipitation---
Cooling Degree Days15.1 (Base 65)
Growing Degree Days30.1 (Base 50)
Averaged from 78 records on October 29, 2013
WEATHER CONDITIONS BREAKOUT
WIND DIRECTION BREAKOUT
WEATHER BY HOUR - OCTOBER 29, 2013
[ °C ]   °F
Local TimeTemperatureDewpointHumidityBarometerVisibilityWind DirectionWind SpeedGust SpeedPrecipitationEventsConditions
1:58 AM75.7 °F75.2 °F98 %29.82 in10.0 miCalmClear
2:58 AM75.4 °F74.8 °F98 %29.82 in10.0 miSE (140°)2.3 mphClear
3:58 AM77.5 °F76.3 °F96 %29.83 in10.0 miESE (110°)9.2 mphMostly Cloudy
4:23 AM78.8 °F77.0 °F94 %29.86 in10.0 miEast (100°)9.2 mphMostly Cloudy
4:28 AM78.8 °F77.0 °F94 %29.86 in10.0 miEast (100°)10.4 mphScattered Clouds
4:58 AM77.9 °F76.6 °F96 %29.82 in10.0 miESE (110°)8.1 mphPartly Cloudy
5:58 AM78.1 °F76.5 °F95 %29.86 in10.0 miEast (90°)9.2 mphMostly Cloudy
6:23 AM78.8 °F77.0 °F94 %29.89 in10.0 miEast (90°)10.4 mphMostly Cloudy
6:33 AM78.8 °F77.0 °F94 %29.90 in10.0 miEast (100°)9.2 mphMostly Cloudy
6:38 AM78.8 °F77.0 °F94 %29.91 in10.0 miEast (100°)8.1 mphMostly Cloudy
6:58 AM79.0 °F76.8 °F93 %29.88 in10.0 miEast (80°)9.2 mphMostly Cloudy
7:03 AM78.8 °F77.0 °F94 %29.91 in10.0 miEast (90°)11.5 mphMostly Cloudy
7:08 AM78.8 °F77.0 °F94 %29.91 in10.0 miEast (90°)9.2 mphMostly Cloudy
7:28 AM80.6 °F77.0 °F89 %29.92 in10.0 miEast (100°)5.8 mphMostly Cloudy
7:33 AM80.6 °F77.0 °F89 %29.92 in10.0 miEast (90°)8.1 mphMostly Cloudy
7:38 AM80.6 °F77.0 °F89 %29.92 in10.0 miEast (90°)5.8 mphMostly Cloudy
7:53 AM80.6 °F78.8 °F94 %29.92 in10.0 miEast (90°)8.1 mphMostly Cloudy
7:58 AM81.0 °F78.3 °F91 %29.89 in10.0 miEast (90°)10.4 mphOvercast
8:08 AM80.6 °F78.8 °F94 %29.93 in10.0 miEast (90°)9.2 mphMostly Cloudy
8:13 AM80.6 °F78.8 °F94 %29.93 in10.0 miEast (80°)8.1 mphMostly Cloudy
8:18 AM82.4 °F78.8 °F89 %29.93 in10.0 miEast (90°)10.4 mphMostly Cloudy
8:23 AM82.4 °F77.0 °F84 %29.93 in10.0 miEast (90°)9.2 mphMostly Cloudy
8:34 AM82.4 °F78.8 °F89 %29.93 in10.0 miEast (100°)9.2 mphScattered Clouds
8:58 AM83.1 °F77.9 °F84 %29.91 in10.0 miEast (100°)8.1 mphPartly Cloudy
9:58 AM83.5 °F79.5 °F88 %29.92 in10.0 miEast (100°)10.4 mphScattered Clouds
10:23 AM84.2 °F78.8 °F84 %29.94 in10.0 miESE (110°)11.5 mphMostly Cloudy
10:28 AM84.2 °F78.8 °F84 %29.94 in10.0 miESE (110°)12.7 mphMostly Cloudy
10:43 AM84.2 °F78.8 °F84 %29.93 in10.0 miESE (110°)12.7 mphMostly Cloudy
10:48 AM84.2 °F78.8 °F84 %29.93 in10.0 miEast (90°)13.8 mphMostly Cloudy
10:58 AM84.0 °F79.0 °F85 %29.91 in10.0 miEast (90°)13.8 mphMostly Cloudy
11:22 AM82.4 °F78.8 °F89 %29.93 in10.0 miEast (90°)15.0 mphMostly Cloudy
11:27 AM84.2 °F78.8 °F84 %29.92 in10.0 miEast (100°)13.8 mphMostly Cloudy
11:32 AM84.2 °F78.8 °F84 %29.92 in10.0 miESE (110°)12.7 mphMostly Cloudy
11:37 AM84.2 °F78.8 °F84 %29.92 in10.0 miEast (100°)12.7 mphMostly Cloudy
11:52 AM84.2 °F78.8 °F84 %29.91 in10.0 miEast (90°)13.8 mphScattered Clouds
11:58 AM84.2 °F78.6 °F83 %29.88 in10.0 miEast (90°)12.7 mphScattered Clouds
12:03 PM84.2 °F78.8 °F84 %29.91 in10.0 miEast (90°)15.0 mphScattered Clouds
12:13 PM84.2 °F78.8 °F84 %29.90 in10.0 miEast (100°)12.7 mphMostly Cloudy
12:18 PM84.2 °F78.8 °F84 %29.90 in10.0 miEast (80°)13.8 mphScattered Clouds
12:58 PM84.7 °F78.8 °F82 %29.86 in10.0 miEast (80°)13.8 mphPartly Cloudy
1:18 PM84.2 °F78.8 °F84 %29.87 in10.0 miEast (100°)12.7 mphMostly Cloudy
1:23 PM84.2 °F78.8 °F84 %29.87 in10.0 miEast (80°)15.0 mphScattered Clouds
1:33 PM84.2 °F78.8 °F84 %29.87 in10.0 miEast (90°)11.5 mphMostly Cloudy
1:38 PM84.2 °F78.8 °F84 %29.87 in10.0 miEast (100°)11.5 mphScattered Clouds
1:53 PM84.2 °F78.8 °F84 %29.86 in10.0 miESE (110°)12.7 mphMostly Cloudy
1:58 PM83.8 °F78.4 °F84 %29.83 in10.0 miEast (90°)13.8 mphMostly Cloudy
2:38 PM82.4 °F77.0 °F84 %29.85 in10.0 miEast (100°)12.7 mphScattered Clouds
2:58 PM83.8 °F78.3 °F83 %29.81 in10.0 miESE (110°)8.1 mphScattered Clouds
3:23 PM82.4 °F78.8 °F89 %29.85 in10.0 miEast (80°)18.4 mphMostly Cloudy
3:24 PM82.4 °F78.8 °F89 %29.84 in9.0 miEast (80°)17.3 mphRainLight Rain
3:29 PM80.6 °F78.8 °F94 %29.84 in6.0 miEast (80°)10.4 mphRainLight Rain
3:34 PM80.6 °F77.0 °F89 %29.84 in7.0 miEast (90°)10.4 mphRainLight Rain
3:37 PM80.6 °F77.0 °F89 %29.84 in10.0 miEast (100°)9.2 mphScattered Clouds
3:42 PM80.6 °F78.8 °F94 %29.84 in10.0 miEast (90°)10.4 mphMostly Cloudy
3:47 PM80.6 °F78.8 °F94 %29.84 in10.0 miEast (90°)8.1 mphMostly Cloudy
3:57 PM80.6 °F78.8 °F94 %29.84 in10.0 miEast (90°)6.9 mphMostly Cloudy
3:58 PM80.6 °F78.8 °F94 %29.81 in10.0 miEast (90°)6.9 mph0.00 inMostly Cloudy
4:03 PM80.6 °F78.8 °F94 %29.84 in10.0 miEast (90°)6.9 mphMostly Cloudy
4:58 PM81.3 °F78.3 °F90 %29.82 in10.0 miEast (100°)5.8 mphScattered Clouds
5:13 PM80.6 °F78.8 °F94 %29.86 in10.0 miEast (90°)5.8 mphMostly Cloudy
5:18 PM80.6 °F78.8 °F94 %29.86 in10.0 miEast (100°)5.8 mphScattered Clouds
5:48 PM80.6 °F78.8 °F94 %29.86 in10.0 miEast (100°)8.1 mphMostly Cloudy
5:58 PM80.6 °F78.8 °F94 %29.84 in10.0 miEast (100°)5.8 mphScattered Clouds
6:18 PM80.6 °F78.8 °F94 %29.88 in10.0 miEast (100°)9.2 mphMostly Cloudy
6:28 PM80.6 °F77.0 °F89 %29.89 in10.0 miEast (90°)10.4 mphScattered Clouds
6:58 PM80.2 °F76.8 °F89 %29.87 in10.0 miEast (100°)8.1 mphScattered Clouds
7:58 PM79.7 °F75.9 °F88 %29.89 in10.0 miEast (90°)11.5 mphScattered Clouds
8:48 PM80.6 °F77.0 °F89 %29.94 in10.0 miEast (80°)11.5 mphMostly Cloudy
8:58 PM80.4 °F77.2 °F90 %29.91 in10.0 miEast (100°)10.4 mphMostly Cloudy
9:13 PM80.6 °F77.0 °F89 %29.94 in10.0 miEast (90°)12.7 mphMostly Cloudy
9:58 PM80.4 °F77.2 °F90 %29.92 in10.0 miENE (70°)16.1 mph21.9 mphMostly Cloudy
10:18 PM80.6 °F77.0 °F89 %29.95 in10.0 miEast (80°)15.0 mphMostly Cloudy
10:23 PM80.6 °F77.0 °F89 %29.95 in10.0 miEast (80°)15.0 mphScattered Clouds
10:28 PM80.6 °F77.0 °F89 %29.95 in10.0 miEast (80°)16.1 mphScattered Clouds
10:38 PM80.6 °F77.0 °F89 %29.95 in10.0 miEast (80°)13.8 mph23.0 mphMostly Cloudy
10:43 PM80.6 °F77.0 °F89 %29.95 in10.0 miEast (80°)16.1 mphScattered Clouds
10:58 PM80.1 °F76.3 °F88 %29.91 in10.0 miEast (80°)11.5 mphPartly Cloudy
11:58 PM79.7 °F76.3 °F89 %29.91 in10.0 miEast (90°)10.4 mphScattered Clouds
Hourly data recorded from PGUA, located miles away from Tamuning, Guam







STORIES FROM OUR PARTNERS